Weather History for KSYR - August, 2014

Change the Weather History Date:

Monday, August 4, 2014

  Actual Average Record
Temperature  
Mean Temperature 74 °F 71 °F  
Max Temperature 83 °F 81 °F 97 °F (2012)
Min Temperature 65 °F 61 °F 49 °F (1914)
Degree Days  
Heating Degree Days 0 0  
Month to date heating degree days 0 0  
Since 1 June heating degree days 25 69  
Since 1 July heating degree days 2 8  
Cooling Degree Days 9 6  
Month to date cooling degree days 32 24  
Year to date cooling degree days 445 370  
Since 1 June cooling degree days 389 340  
Growing Degree Days 23 (Base 50)    
Moisture  
Dew Point 64 °F    
Average Humidity 73    
Maximum Humidity 100    
Minimum Humidity 46    
Precipitation  
Precipitation T in 0.11 in 1.73 in (1989)
Month to date precipitation 0.51 0.47  
Year to date precipitation 25.81 21.49  
Snow  
Snow 0.00 in 0.00 in 0.00 in (2002)
Month to date snowfall 0.0 0.0  
Since 1 June snowfall 0.0 0.0  
Since 1 July snowfall 0.0 0.0  
Snow Depth 0.00 in    
Sea Level Pressure  
Sea Level Pressure 30.05 in    
Wind  
Wind Speed 4 mph (West)    
Max Wind Speed 10 mph    
Max Gust Speed 15 mph    
Visibility 9 miles    
Events Rain    
T = Trace of Precipitation, MM = Missing Value Source: NWS Daily Summary

Daily Weather History Graph

Daily Weather History Graph

Search for Another Location

Airport or City:

Trip Planner

Search our weather history database for the weather conditions in past years. The results will help you decide how hot, cold, wet, or windy it might be!

Date:

Astronomy

Aug. 04, 2014 Rise Set
Actual Time 5:58 AM EDT 8:22 PM EDT
Civil Twilight 5:26 AM EDT 8:54 PM EDT
Nautical Twilight 4:46 AM EDT 9:33 PM EDT
Astronomical Twilight 4:01 AM EDT 10:17 PM EDT
Moon 2:31 PM EDT (8/4) 12:05 AM EDT (8/4)
Length of Visible Light 15h 27m
Length of Day
14h 24m
First Quarter, 57% of the Moon is Illuminated
Aug 4
First Quarter
Aug 10
Full
Aug 17
Last Quarter
Aug 25
New
Sep 2
First Quarter

Hourly Weather History & Observations

Time (EDT) Temp. Heat Index Dew Point Humidity Pressure Visibility Wind Dir Wind Speed Gust Speed Precip Events Conditions
12:54 AM 64.4 °F - 62.6 °F 94% 30.05 in 10.0 mi WSW 3.5 mph - N/A   Overcast
1:03 AM 64.4 °F - 64.4 °F 100% 30.05 in 10.0 mi WSW 4.6 mph - N/A   Overcast
1:54 AM 66.0 °F - 64.0 °F 93% 30.03 in 10.0 mi Calm Calm - N/A   Overcast
2:48 AM 66.2 °F - 64.4 °F 94% 30.05 in 10.0 mi West 4.6 mph - 0.00 in   Light Drizzle
2:54 AM 66.0 °F - 64.0 °F 93% 30.04 in 8.0 mi WSW 3.5 mph - 0.00 in   Light Drizzle
3:46 AM 64.4 °F - 64.4 °F 100% 30.05 in 8.0 mi West 6.9 mph - 0.00 in   Overcast
3:54 AM 64.9 °F - 64.0 °F 97% 30.04 in 7.0 mi West 6.9 mph - 0.00 in   Overcast
4:43 AM 64.4 °F - 64.4 °F 100% 30.06 in 7.0 mi West 4.6 mph - 0.00 in   Light Drizzle
4:54 AM 64.9 °F - 64.0 °F 97% 30.05 in 7.0 mi West 4.6 mph - 0.00 in   Light Drizzle
5:28 AM 64.4 °F - 64.4 °F 100% 30.06 in 8.0 mi West 4.6 mph - 0.00 in   Overcast
5:54 AM 64.9 °F - 64.0 °F 97% 30.05 in 7.0 mi West 5.8 mph - 0.00 in   Overcast
6:12 AM 64.4 °F - 64.4 °F 100% 30.07 in 6.0 mi West 4.6 mph - N/A   Overcast
6:54 AM 64.9 °F - 64.0 °F 97% 30.07 in 5.0 mi West 5.8 mph - N/A   Overcast
7:54 AM 66.0 °F - 64.9 °F 96% 30.07 in 4.0 mi West 4.6 mph - N/A   Overcast
8:28 AM 66.2 °F - 64.4 °F 94% 30.09 in 4.0 mi WNW 3.5 mph - N/A   Overcast
8:54 AM 68.0 °F - 66.0 °F 93% 30.08 in 7.0 mi West 3.5 mph - N/A   Overcast
9:26 AM 69.8 °F - 64.4 °F 83% 30.09 in 8.0 mi Calm Calm - N/A   Mostly Cloudy
9:49 AM 69.8 °F - 64.4 °F 83% 30.09 in 9.0 mi Calm Calm - N/A   Overcast
9:54 AM 70.0 °F - 64.9 °F 84% 30.08 in 9.0 mi NW 3.5 mph - N/A   Overcast
10:07 AM 71.6 °F - 64.4 °F 78% 30.09 in 10.0 mi NNW 5.8 mph - N/A   Mostly Cloudy
10:54 AM 73.0 °F - 64.0 °F 73% 30.08 in 10.0 mi Calm Calm - N/A   Mostly Cloudy
11:54 AM 73.9 °F - 63.0 °F 68% 30.07 in 10.0 mi Calm Calm - N/A   Scattered Clouds
12:54 PM 77.0 °F - 62.1 °F 60% 30.06 in 10.0 mi Calm Calm - N/A   Mostly Cloudy
1:54 PM 81.0 °F 82.2 °F 63.0 °F 54% 30.06 in 10.0 mi Variable 4.6 mph - N/A   Scattered Clouds
2:54 PM 81.0 °F 81.7 °F 61.0 °F 50% 30.04 in 10.0 mi West 6.9 mph - N/A   Scattered Clouds
3:54 PM 82.0 °F 82.1 °F 59.0 °F 45% 30.02 in 10.0 mi Variable 3.5 mph - N/A   Mostly Cloudy
4:54 PM 82.0 °F 83.0 °F 62.1 °F 51% 30.01 in 10.0 mi SSW 6.9 mph - N/A   Scattered Clouds
5:54 PM 82.0 °F 82.7 °F 61.0 °F 49% 30.02 in 10.0 mi WSW 8.1 mph - N/A   Scattered Clouds
6:54 PM 79.0 °F - 62.1 °F 56% 30.03 in 10.0 mi West 6.9 mph - N/A   Mostly Cloudy
7:54 PM 77.0 °F - 62.1 °F 60% 30.03 in 10.0 mi West 8.1 mph - N/A   Mostly Cloudy
8:54 PM 73.9 °F - 63.0 °F 68% 30.02 in 10.0 mi West 4.6 mph - N/A   Mostly Cloudy
9:54 PM 70.0 °F - 64.0 °F 81% 30.02 in 10.0 mi Calm Calm - N/A   Scattered Clouds
10:54 PM 70.0 °F - 64.0 °F 81% 30.03 in 10.0 mi ESE 3.5 mph - N/A   Partly Cloudy
11:54 PM 68.0 °F - 63.0 °F 84% 30.02 in 10.0 mi Calm Calm - N/A   Scattered Clouds